Weather History for Merced, CA

Change the Weather History Date:

Wednesday, March 20, 2013

  Actual Average Record
Temperature  
Mean Temperature 64 °F 54 °F  
Max Temperature 72 °F 66 °F 83 °F (2004)
Min Temperature 55 °F 42 °F 35 °F (2002)
Degree Days  
Heating Degree Days 1    
Month to date heating degree days 130  
Since 1 July heating degree days 2042  
Cooling Degree Days 0    
Month to date cooling degree days 0  
Year to date cooling degree days 0  
Growing Degree Days 14 (Base 50)    
Moisture  
Dew Point 51 °F    
Average Humidity 63    
Maximum Humidity 86    
Minimum Humidity 40    
Precipitation  
Precipitation 0.01 in 0.06 in 1.63 in (2011)
Month to date precipitation 0.27 1.50  
Year to date precipitation 1.69 6.45  
Since 1 July precipitation 6.52 10.27  
Snow  
Snow 0.00 in - - ()
Month to date snowfall 0.0  
Since 1 July snowfall 0.0  
Snow Depth 0.00 in    
Sea Level Pressure  
Sea Level Pressure 30.08 in    
Wind  
Wind Speed 5 mph (NW)    
Max Wind Speed 17 mph    
Max Gust Speed 22 mph    
Visibility 10 miles    
Events Rain    
T = Trace of Precipitation, MM = Missing Value Source: NWS Daily Summary

Daily Weather History Graph

Daily Weather History Graph

Search for Another Location

Airport:

Trip Planner

Search our weather history database for the weather conditions in past years. The results will help you decide how hot, cold, wet, or windy it might be!

Date:

Astronomy

Mar. 20, 2013 Rise Set
Actual Time 7:05 AM PDT 7:14 PM PDT
Civil Twilight 6:39 AM PDT 7:40 PM PDT
Nautical Twilight 6:08 AM PDT 8:10 PM PDT
Astronomical Twilight 5:37 AM PDT 8:41 PM PDT
Moon 1:00 PM PDT (3/20) 2:41 AM PDT (3/20)
Length of Visible Light 13h 01m
Length of Day
12h 09m
First Quarter, 60% of the Moon is Illuminated
Mar 20
First Quarter
Mar 27
Full
Apr 2
Last Quarter
Apr 10
New
Apr 18
First Quarter

Hourly Weather History & Observations

Time (PDT) Temp. Dew Point Humidity Pressure Visibility Wind Dir Wind Speed Gust Speed Precip Events Conditions
12:53 AM 59.0 °F 51.1 °F 75% 30.10 in 10.0 mi East 4.6 mph - N/A   Overcast
1:53 AM 57.0 °F 52.0 °F 83% 30.10 in 10.0 mi Calm Calm - N/A   Overcast
2:53 AM 55.0 °F 51.1 °F 86% 30.10 in 10.0 mi West 6.9 mph - N/A   Mostly Cloudy
3:53 AM 55.0 °F 50.0 °F 83% 30.09 in 10.0 mi WNW 3.5 mph - N/A   Overcast
4:53 AM 55.0 °F 51.1 °F 86% 30.09 in 10.0 mi NW 4.6 mph - 0.00 in Rain Light Rain
5:53 AM 55.9 °F 52.0 °F 87% 30.09 in 9.0 mi North 3.5 mph - 0.01 in Rain Light Rain
6:53 AM 55.9 °F 52.0 °F 87% 30.09 in 10.0 mi NNE 3.5 mph - 0.00 in   Overcast
7:53 AM 57.0 °F 52.0 °F 83% 30.09 in 10.0 mi ENE 3.5 mph - N/A   Overcast
8:53 AM 57.9 °F 53.1 °F 84% 30.10 in 10.0 mi Calm Calm - N/A   Overcast
9:53 AM 59.0 °F 53.1 °F 81% 30.10 in 10.0 mi Calm Calm - N/A   Overcast
10:53 AM 62.1 °F 52.0 °F 70% 30.10 in 10.0 mi Calm Calm - 0.00 in Rain Light Rain
11:53 AM 62.1 °F 53.1 °F 72% 30.11 in 9.0 mi SW 3.5 mph - 0.00 in   Overcast
12:53 PM 64.9 °F 53.1 °F 65% 30.10 in 10.0 mi NW 5.8 mph - N/A   Mostly Cloudy
1:53 PM 69.1 °F 50.0 °F 51% 30.08 in 10.0 mi Calm Calm - N/A   Mostly Cloudy
2:53 PM 71.1 °F 50.0 °F 47% 30.06 in 10.0 mi Calm Calm - N/A   Mostly Cloudy
3:53 PM 72.0 °F 48.9 °F 44% 30.06 in 10.0 mi NNW 3.5 mph - N/A   Scattered Clouds
4:53 PM 71.1 °F 46.0 °F 41% 30.05 in 10.0 mi WNW 4.6 mph - N/A   Partly Cloudy
5:53 PM 69.1 °F 44.1 °F 40% 30.05 in 10.0 mi WSW 9.2 mph - N/A   Mostly Cloudy
6:53 PM 66.9 °F 46.9 °F 49% 30.05 in 10.0 mi West 4.6 mph - N/A   Clear
7:53 PM 63.0 °F 48.9 °F 60% 30.06 in 10.0 mi NNW 6.9 mph - N/A   Clear
8:53 PM 57.9 °F 50.0 °F 75% 30.06 in 10.0 mi NW 6.9 mph - N/A   Clear
9:53 PM 59.0 °F 51.1 °F 75% 30.06 in 10.0 mi NNW 11.5 mph - N/A   Clear
11:53 PM 57.0 °F 52.0 °F 83% 30.08 in 10.0 mi NNW 13.8 mph - N/A   Partly Cloudy